This is the latest recevied weather packets stored in our database for station/object HA9OZD-18. If no packets are shown the sender has not sent any weather packets the latest 10 day(s).
| Time | Temp. | Humidity | Pressure | Rain* | Wind** | Luminosity | Snow |
|---|---|---|---|---|---|---|---|
| 1788086708 | 22.78° C | 35% | 1018.1 hPa | - | - | - | - |
| 1788083108 | 22.22° C | 41% | 1018.2 hPa | - | - | - | - |
| 1788079508 | 20.56° C | 47% | 1018.1 hPa | - | - | - | - |
| 1788075907 | 19.44° C | 63% | 1017.8 hPa | - | - | - | - |
| 1788072502 | 17.22° C | 77% | 1017.5 hPa | - | - | - | - |
| 1788072307 | 17.22° C | 77% | 1017.5 hPa | - | - | - | - |
| 1788068707 | 16.11° C | 82% | 1017.2 hPa | - | - | - | - |
| 1788065106 | 15° C | 65% | 1017 hPa | - | - | - | - |
| 1788061543 | 15° C | 56% | 1016.6 hPa | - | - | - | - |
| 1788061507 | 15° C | 56% | 1016.6 hPa | - | - | - | - |
| 1788057909 | 15.56° C | 49% | 1016.6 hPa | - | - | - | - |
| 1788054306 | 16.11° C | 43% | 1016.6 hPa | - | - | - | - |
| 1788052442 | 16.11° C | 48% | 1016.5 hPa | - | - | - | - |
| 1788050705 | 16.11° C | 48% | 1016.5 hPa | - | - | - | - |
| 1788047105 | 16.11° C | 55% | 1016.4 hPa | - | - | - | - |
| 1788043505 | 16.11° C | 56% | 1016.4 hPa | - | - | - | - |
| 1788039917 | 16.11° C | 55% | - | - | - | - | - |
| 1788039917 | 16.11° C | 55% | 1016.6 hPa | - | - | - | - |
| 1788036598 | 16.67° C | 56% | 1016.6 hPa | - | - | - | - |
| 1788036304 | 16.67° C | 56% | 1016.6 hPa | - | - | - | - |
| 1788032704 | 16.67° C | 53% | 1016.6 hPa | - | - | - | - |
| 1788029128 | 17.78° C | 51% | 1016.4 hPa | - | - | - | - |
| 1788025528 | 18.33° C | 51% | 1016.1 hPa | - | - | - | - |
| 1788021927 | 20° C | 50% | 1015.9 hPa | - | - | - | - |
| 1788018327 | 21.11° C | 46% | 1015.9 hPa | - | - | - | - |
* Rain since midnight (hover to see other rain measurements)
** Current wind speed in m/s (hover to see current wind gust speed)